Theta_e
301 302 302 302 302 302 302 302 302 302 302 303 304 305 306 306 306 300 296 300 299 293 295 296 297 294 294 293 289 292 289 287 284 282 283 282 277 280 279 279 277 277 275 273 275 273 272 286 283 280 284 285 286 287
301 301 301 301 302 302 302 302 302 302 302 302 302 303 304 305 305 303 293 298 302 295 294 299 299 301 300 299 295 294 292 291 289 284 284 284 281 280 279 277 280 279 283 279 279 279 286 285 285 288 288 288 287 287
301 300 301 301 301 301 301 301 302 302 302 302 302 302 302 303 304 302 295 293 293 289 286 287 288 294 299 299 301 291 292 294 291 294 290 288 283 285 282 279 280 280 285 282 280 284 285 288 290 291 293 293 292 291
300 300 300 300 300 300 300 301 301 301 302 302 302 301 301 301 302 302 296 293 295 288 282 282 292 289 294 294 297 299 297 296 295 293 288 285 284 289 285 286 283 285 285 284 285 289 291 293 294 294 292 293 294 294
299 300 300 300 300 300 300 300 300 301 301 301 302 302 301 301 301 297 294 295 296 286 279 282 288 290 291 290 289 292 295 294 292 288 285 283 287 287 287 286 284 288 287 285 284 291 290 291 293 293 292 292 293 292
299 299 299 300 300 300 300 300 300 300 300 301 301 301 302 301 300 292 284 293 297 297 287 280 284 284 287 288 288 286 288 290 291 288 283 286 290 287 282 281 286 289 291 292 289 293 292 292 293 293 291 292 292 292
298 298 298 299 299 300 300 300 300 300 300 300 300 300 301 301 294 289 284 292 299 296 286 277 276 281 288 285 286 286 287 288 290 289 287 287 287 289 285 282 288 289 290 291 293 292 289 291 289 291 290 291 292 291
297 298 298 298 299 299 299 299 299 300 300 300 300 300 300 300 297 291 294 299 298 291 286 276 273 276 284 281 281 285 286 288 287 287 286 284 286 285 281 284 286 288 289 287 288 289 288 289 288 289 289 289 287 288
297 297 297 298 298 298 299 299 299 299 299 299 299 299 292 289 287 286 295 297 294 286 276 276 271 268 281 281 284 285 287 282 285 283 281 284 280 280 281 282 283 284 284 284 286 286 286 287 289 289 289 290 288 288
297 297 297 297 297 298 298 298 298 298 298 299 293 286 279 284 294 295 288 287 287 287 285 278 278 275 279 278 277 279 283 280 277 278 283 281 280 284 283 283 285 288 289 288 286 285 286 286 287 287 289 289 291 290
296 296 296 297 297 297 297 298 298 298 297 289 286 283 285 292 287 282 275 279 280 279 284 283 280 278 281 277 279 283 276 275 270 274 277 272 273 277 284 283 286 287 288 288 287 287 288 288 288 287 287 287 289 290
296 296 296 296 297 297 297 297 298 294 290 290 290 291 288 279 279 274 272 272 273 273 278 281 281 282 281 284 281 280 278 276 271 275 276 270 275 282 283 284 285 287 286 287 287 287 288 288 288 286 286 287 287 289
295 296 296 296 296 297 297 297 297 297 296 292 287 283 282 275 274 272 266 269 271 275 276 278 278 280 284 285 281 277 276 276 280 276 274 271 278 283 284 284 285 287 287 287 287 288 288 285 285 284 284 286 287 288
295 295 295 296 296 296 297 297 297 295 290 283 280 275 274 270 274 272 272 273 277 274 277 282 278 279 278 274 275 268 272 272 266 269 267 280 283 285 286 286 285 283 283 284 284 284 285 285 284 284 285 285 285 285
295 295 295 295 296 296 296 296 297 293 286 281 281 273 271 274 270 270 270 275 278 278 277 278 278 278 272 274 271 270 266 264 268 269 275 278 284 285 283 284 283 282 281 282 282 282 283 284 283 283 284 285 285 285
294 294 291 295 295 296 296 295 292 291 284 282 281 275 271 267 267 266 269 274 280 280 280 280 277 273 272 272 267 265 264 262 272 274 276 278 279 281 281 282 282 281 280 281 282 283 283 283 282 282 283 284 283 283
294 287 293 294 295 295 296 290 287 284 282 280 277 273 275 270 275 276 277 278 280 280 276 275 272 271 275 270 267 269 267 275 278 277 278 278 278 280 282 281 280 281 281 281 281 282 282 283 282 281 281 282 282 282
287 288 293 295 294 292 288 286 283 281 277 271 273 273 276 278 279 279 277 279 279 278 278 275 277 273 271 265 267 275 276 279 279 279 279 280 280 280 281 280 282 281 281 281 281 281 281 280 279 280 282 282 281 282
288 289 293 294 292 286 283 283 282 276 274 269 273 276 279 281 282 282 280 281 281 282 279 277 275 270 271 274 277 278 279 279 278 280 280 281 281 281 282 281 281 281 280 280 280 281 281 281 281 282 282 282 282 283
294 294 294 294 293 284 280 280 284 276 268 272 271 269 277 277 279 279 280 281 279 275 275 275 275 277 277 280 281 281 281 281 280 278 278 280 281 281 281 281 280 281 280 280 279 282 280 280 281 282 282 281 281 281
291 290 293 292 286 285 281 272 278 276 274 272 263 269 270 265 269 274 274 279 275 274 271 276 278 281 282 283 283 283 282 281 280 280 279 279 282 282 282 282 282 282 281 281 281 281 283 282 283 283 282 281 282 282
286 292 283 287 283 283 281 282 279 275 272 271 272 264 261 263 265 267 272 271 270 277 277 279 280 281 281 281 281 282 281 281 281 281 284 283 280 280 281 282 282 281 281 281 282 282 283 284 284 283 282 281 283 282
291 288 285 284 280 278 274 280 274 275 272 267 268 265 267 265 265 268 265 268 274 279 281 281 281 282 281 281 281 281 281 281 280 280 281 281 281 282 282 282 282 281 281 282 284 284 284 286 285 285 284 283 281 278
290 283 280 278 278 275 278 276 277 272 271 266 261 262 264 266 263 261 265 268 278 281 280 280 280 279 279 278 278 279 281 281 280 280 281 280 279 280 282 282 282 283 283 284 284 284 285 285 285 284 283 281 278 279
279 278 278 275 276 272 272 272 272 270 266 262 267 265 264 259 259 263 264 270 276 278 279 280 279 278 277 278 279 280 281 280 279 278 280 281 280 280 280 282 282 283 284 284 284 284 284 285 285 283 282 282 282 280
273 275 276 274 272 270 267 265 264 264 261 259 265 261 255 258 261 266 266 276 277 278 278 279 278 278 278 279 278 279 280 282 281 279 280 282 282 281 280 280 280 282 285 285 284 283 283 283 284 283 282 282 285 283
273 271 274 277 273 272 269 269 271 269 267 265 264 260 262 266 265 268 274 274 275 277 280 281 280 279 279 280 281 282 282 282 281 282 283 283 284 284 283 281 281 283 285 285 284 284 283 283 284 283 282 283 284 284
273 272 270 273 270 268 265 263 262 263 265 267 264 259 262 264 267 272 272 274 276 279 279 280 280 280 280 280 281 281 281 282 283 283 284 284 284 284 285 285 285 286 285 285 284 284 284 285 285 285 284 283 285 286
271 272 273 271 270 267 266 266 266 268 271 269 265 266 267 272 277 279 280 281 278 269 274 276 279 281 280 279 280 280 281 281 280 278 277 278 280 281 283 284 284 284 284 284 286 286 285 285 286 285 286 285 286 286
269 273 268 267 269 268 269 271 268 265 269 271 269 270 275 278 281 283 282 281 280 280 280 279 279 279 279 279 279 280 282 283 282 280 277 277 278 281 281 281 281 282 283 282 283 284 288 288 288 287 286 285 285 283
271 266 264 267 267 266 266 262 260 263 261 262 263 268 275 278 280 281 279 277 275 275 276 276 276 276 275 274 274 273 273 277 279 278 278 278 279 280 280 281 282 282 282 282 283 284 284 286 286 285 284 283 282 282
267 269 268 263 263 261 257 260 259 260 261 259 274 273 276 275 275 275 272 275 274 273 275 274 272 272 273 273 273 273 276 275 275 276 276 277 277 279 281 283 282 282 282 283 284 284 284 284 283 283 282 281 280 279
260 256 255 260 263 263 260 263 260 260 260 262 269 271 273 273 273 276 272 272 271 270 270 271 272 272 273 273 272 273 275 275 275 280 282 284 286 288 285 282 282 281 281 281 281 281 281 280 279 279 279 278 278 278
Wind_Speed
6 7 9 8 7 7 8 9 8 8 10 11 12 11 9 8 6 2 4 4 3 3 4 5 9 13 9 6 10 4 2 0 1 5 5 5 5 6 4 4 9 12 11 7 5 6 12 8 3 7 5 5 5 6
7 8 8 9 9 10 9 10 10 9 9 9 10 11 11 11 8 2 2 2 1 4 4 1 11 15 13 15 9 5 5 4 4 3 3 3 4 2 3 5 1 5 8 5 12 11 4 6 7 7 7 14 10 10
10 8 10 10 10 11 12 12 13 11 9 9 10 10 11 12 11 5 3 2 1 4 6 3 10 14 11 14 12 11 9 12 8 7 8 7 14 4 11 8 7 6 5 4 4 7 17 15 12 12 16 16 12 10
10 10 10 10 11 11 12 13 14 14 13 12 11 10 10 11 12 9 2 2 1 3 5 7 3 4 7 2 10 15 18 7 4 2 7 6 6 7 6 8 6 2 4 6 16 14 22 18 18 15 10 14 21 23
12 13 12 12 12 12 12 13 13 14 14 13 14 12 11 11 12 4 3 5 6 5 4 8 12 23 19 12 16 14 12 13 6 9 6 6 3 3 3 4 12 8 13 14 23 17 20 16 12 12 19 22 21 24
12 13 13 15 14 14 14 13 14 14 14 14 13 14 14 10 8 2 5 2 4 4 4 5 4 6 5 4 6 8 7 6 8 5 4 4 4 5 8 15 12 14 16 18 25 22 17 18 16 16 17 20 21 20
13 14 15 16 15 16 15 15 15 15 15 15 15 14 14 12 2 3 5 3 5 2 2 6 6 5 4 3 3 2 1 4 6 6 7 9 8 8 7 17 15 15 16 17 16 14 18 18 15 13 15 20 21 19
15 15 16 16 17 16 16 16 16 16 17 16 16 16 15 15 9 5 8 17 11 1 1 5 7 5 3 3 3 1 2 2 4 4 2 3 2 2 8 16 18 15 11 8 7 8 11 11 8 12 12 11 13 13
16 17 17 18 18 18 17 17 17 17 17 17 16 15 4 2 3 5 4 5 3 5 4 3 4 6 1 2 2 2 2 4 4 7 6 3 4 9 6 5 6 7 6 8 8 7 8 7 9 12 14 14 11 11
17 17 18 18 19 19 18 18 18 18 15 16 4 0 4 4 5 7 4 3 4 5 4 5 3 9 3 1 3 2 4 5 4 5 3 5 6 6 3 0 4 9 9 13 13 14 14 16 13 11 12 13 14 13
18 19 19 19 19 19 19 19 18 17 12 2 2 4 4 5 2 2 3 2 2 4 5 5 9 12 2 4 5 6 4 3 2 7 7 4 5 3 1 2 1 0 4 5 10 17 14 15 15 15 15 15 14 13
20 20 20 21 21 20 20 19 18 9 3 6 3 2 1 2 2 3 5 3 4 6 4 4 5 5 3 2 3 3 4 3 7 1 4 4 4 5 6 10 11 7 3 4 8 12 15 17 14 14 13 14 12 12
21 21 21 21 21 21 21 20 19 19 12 1 4 4 4 4 7 7 6 4 3 4 4 3 4 4 3 4 4 2 5 3 2 3 3 4 3 4 7 7 7 7 8 10 13 14 13 16 12 9 12 10 10 11
22 22 21 21 21 21 21 20 19 16 5 5 7 9 7 5 5 6 6 5 6 3 3 3 4 4 3 1 3 3 7 3 3 3 6 3 11 10 12 8 4 8 8 9 10 10 12 13 13 13 11 8 10 12
21 21 21 19 21 21 21 19 20 6 4 6 5 7 8 5 2 3 2 2 5 1 1 1 3 2 3 3 4 2 6 5 6 6 5 5 9 10 8 7 8 10 9 7 9 9 12 12 11 14 13 12 11 10
20 20 12 17 21 21 19 16 6 3 4 5 6 3 1 3 4 1 3 6 3 2 1 1 3 3 6 4 3 9 5 8 12 6 6 4 7 8 9 10 9 9 10 10 12 12 11 12 12 14 16 12 11 8
21 6 10 16 19 19 17 5 2 6 5 5 4 2 4 3 7 8 6 6 4 4 3 3 4 10 2 4 5 5 8 13 11 7 5 7 8 13 15 10 9 11 12 10 10 11 12 13 11 12 17 16 9 8
10 5 14 20 17 6 1 3 3 5 7 5 3 4 3 4 10 8 5 4 4 4 3 7 4 7 8 6 6 9 9 9 8 10 11 12 12 12 11 14 14 12 13 13 12 14 12 10 12 13 14 13 9 9
8 7 16 21 9 3 4 5 4 4 7 4 3 3 4 5 8 11 5 6 7 2 1 2 7 5 6 7 12 12 10 9 12 13 12 13 12 13 15 13 13 13 13 14 14 12 11 14 12 12 11 10 11 10
21 21 21 20 13 3 3 4 3 4 4 6 1 2 6 6 6 7 9 8 5 3 5 6 11 14 14 15 15 14 12 12 11 12 13 12 11 13 13 11 10 13 11 11 10 16 11 11 10 10 9 9 9 9
15 10 14 14 4 6 5 3 5 5 3 4 2 3 4 3 3 5 7 4 3 4 5 9 13 16 20 16 14 12 13 12 13 13 14 14 13 12 12 12 13 11 11 10 11 12 15 11 12 9 8 9 9 8
5 12 2 5 4 5 6 6 3 2 2 3 2 2 2 2 4 6 2 3 5 9 8 12 15 15 15 18 16 14 14 16 16 13 20 19 14 12 13 12 12 13 12 12 11 12 11 10 11 10 9 9 11 7
9 4 3 5 8 7 6 5 4 5 5 5 2 1 4 4 6 1 3 5 7 10 14 13 16 19 16 16 14 15 15 17 13 13 14 13 13 13 13 13 13 13 14 13 11 11 11 18 15 13 11 10 6 5
9 5 7 6 8 5 4 4 3 3 2 2 5 5 4 5 1 3 5 5 13 11 10 16 11 10 9 9 11 13 15 11 11 11 12 11 12 13 13 13 13 13 13 12 11 12 11 12 13 9 10 9 6 7
6 8 6 6 5 6 7 6 4 4 7 4 5 5 5 2 2 3 5 8 11 13 12 11 9 8 10 13 12 13 15 10 11 14 12 12 13 13 13 13 13 13 10 11 12 12 10 9 10 10 9 10 11 10
9 9 7 8 4 6 7 7 7 8 4 3 8 3 2 4 3 7 7 13 11 9 11 10 10 10 10 11 12 12 13 11 10 12 13 11 12 13 15 15 15 13 6 7 9 13 14 12 12 12 10 13 18 12
7 7 3 1 4 3 1 2 2 3 7 8 5 4 4 6 8 8 8 7 6 7 9 9 9 11 13 13 12 11 11 9 12 13 12 11 11 11 12 14 17 13 10 10 10 11 12 14 12 10 11 9 9 9
6 7 9 7 2 1 5 3 6 8 6 4 4 4 9 11 10 6 7 6 6 7 7 9 9 10 11 12 12 11 11 11 12 11 11 12 11 10 12 10 11 19 13 11 11 11 12 10 9 9 10 10 8 8
4 3 6 6 4 3 7 9 8 7 5 6 6 6 8 7 8 9 12 10 5 3 6 9 11 9 9 9 9 9 9 8 10 18 20 14 10 5 5 7 8 7 7 9 14 13 12 11 8 7 9 8 7 7
4 5 5 5 8 9 8 9 6 3 4 4 3 5 8 11 13 11 10 10 10 11 10 7 6 6 10 10 11 10 7 5 5 8 10 10 7 7 8 8 8 7 6 7 8 6 11 12 11 8 7 5 6 6
7 4 4 4 7 6 5 1 2 2 1 4 3 6 16 13 10 9 7 4 2 2 4 5 5 4 6 6 6 9 9 4 4 8 8 8 8 9 9 9 7 6 6 7 6 5 3 4 5 7 8 9 10 11
3 7 7 5 6 4 2 2 1 3 4 2 8 6 8 7 10 1 3 3 4 5 7 7 7 8 7 7 7 7 15 9 9 8 11 8 8 10 11 7 5 5 6 6 4 1 3 5 6 7 7 8 9 10
3 3 3 2 3 3 3 2 2 5 2 3 5 4 3 3 5 1 0 2 2 4 6 6 9 9 11 10 9 8 10 7 12 18 21 19 19 11 4 3 4 4 4 3 3 3 5 8 7 7 8 10 10 10
Wind_Direction
294 298 303 309 315 318 323 329 336 340 339 335 335 338 322 322 337 42 262 197 220 259 261 217 238 253 253 240 273 315 297 13 342 217 234 221 228 229 272 206 183 173 168 196 184 215 278 227 106 191 224 291 313 307
282 289 297 306 316 316 317 316 319 326 329 329 329 329 331 328 309 53 274 305 297 263 289 320 264 248 244 249 256 205 269 254 211 212 240 272 289 288 251 249 272 250 219 210 194 206 261 239 234 260 267 285 297 295
284 293 298 300 306 310 313 312 312 312 311 315 317 321 324 324 325 311 253 267 335 276 279 222 243 254 240 233 237 255 249 248 202 209 267 246 243 177 254 225 220 240 250 239 281 199 249 268 271 265 276 296 304 294
282 283 288 292 297 300 302 305 307 310 309 308 308 315 313 313 315 321 237 204 188 272 268 280 335 300 284 277 233 232 252 273 285 199 239 229 256 191 250 274 252 252 119 258 261 270 272 260 265 286 305 307 307 304
280 283 283 284 287 289 292 296 299 303 308 309 305 296 297 305 310 318 221 216 195 179 255 287 298 283 275 254 252 235 228 248 247 250 230 237 227 212 205 246 255 219 234 241 264 273 272 289 321 319 310 303 298 294
277 285 285 285 287 289 288 290 294 297 301 303 306 304 290 293 315 347 320 323 200 194 259 290 283 282 276 310 253 246 225 222 224 255 238 239 194 212 246 257 266 213 228 237 268 277 293 302 294 296 292 287 285 289
274 276 281 285 285 284 287 287 289 292 294 297 301 302 298 283 206 189 207 213 148 163 290 302 291 270 257 257 282 289 218 217 221 238 232 252 240 212 246 256 280 280 272 270 276 294 282 289 294 303 295 293 298 296
269 276 278 281 282 284 282 282 285 287 289 292 295 300 306 301 293 259 247 251 240 310 213 259 270 330 185 246 291 225 255 221 212 245 187 210 235 259 268 272 281 289 316 292 283 285 277 302 306 304 303 308 311 305
262 266 271 274 278 279 279 282 280 283 286 290 295 306 317 205 224 237 273 357 169 173 204 216 207 264 45 243 232 257 229 251 218 241 232 170 213 228 249 324 336 303 301 307 310 292 292 302 298 300 302 310 311 314
259 264 268 271 273 277 280 278 278 280 284 290 316 260 296 225 279 310 4 191 207 195 222 235 204 244 124 90 274 285 207 223 241 228 162 222 243 245 62 284 8 5 1 353 343 339 321 311 305 309 332 318 307 306
258 263 268 270 272 273 272 274 276 276 289 139 200 229 251 301 20 48 271 234 227 254 216 221 224 247 214 222 232 211 240 232 248 245 180 231 251 213 9 327 319 213 236 32 341 313 302 299 307 315 306 312 315 309
260 263 267 269 269 272 272 270 269 265 203 196 181 234 274 29 155 194 210 270 203 231 230 216 225 218 250 232 247 254 245 178 246 316 203 238 237 192 201 229 236 234 228 242 260 290 300 290 291 289 289 303 318 303
259 262 264 266 268 269 267 265 263 260 258 175 204 231 194 206 205 214 211 263 248 234 220 206 245 213 208 204 260 247 279 261 202 257 273 235 263 242 259 272 292 267 262 270 280 278 273 273 272 272 293 302 317 304
256 260 262 265 267 264 262 260 259 261 238 222 199 206 187 210 216 202 195 197 234 188 173 218 263 213 225 163 219 166 242 60 303 264 238 204 207 222 243 244 261 276 258 274 282 287 286 287 294 305 306 312 316 309
254 258 262 265 263 260 258 256 255 231 215 228 213 215 204 206 244 251 272 320 251 234 158 299 256 143 279 256 210 9 335 248 207 230 227 225 220 235 252 255 251 264 267 262 281 284 287 293 298 306 313 314 314 306
254 261 259 264 263 259 253 252 254 192 228 219 220 205 302 60 287 284 213 246 228 199 76 243 256 243 245 213 142 218 165 221 247 239 249 263 260 252 256 258 252 258 268 284 295 294 296 297 294 295 302 302 295 274
255 233 251 259 254 256 253 228 151 210 244 247 244 267 184 210 223 221 203 228 171 150 222 190 215 228 323 227 238 202 211 247 266 271 263 257 255 279 286 264 250 259 266 269 272 274 272 281 291 292 294 299 285 269
247 225 251 250 243 257 246 164 214 245 224 225 200 217 239 254 244 255 236 219 152 203 188 220 181 211 237 216 245 245 248 259 267 264 264 272 277 269 266 268 272 265 267 271 266 266 270 271 273 275 283 288 283 291
225 204 234 240 230 159 199 206 175 230 222 204 227 205 193 220 225 239 234 232 216 240 119 214 236 217 236 234 251 257 262 261 264 270 273 274 272 272 272 263 262 266 262 260 263 263 265 260 262 273 278 283 280 288
254 253 241 237 229 198 239 219 187 206 217 226 151 230 221 233 247 232 234 238 190 165 214 222 244 249 247 254 257 262 262 268 275 277 273 273 271 271 268 265 260 259 262 262 255 257 263 268 262 262 259 256 265 269
255 244 247 235 214 200 199 193 202 209 181 199 272 160 240 360 232 239 248 162 174 209 230 231 245 249 246 251 261 264 267 265 261 261 272 278 276 275 273 266 262 268 265 263 262 263 265 263 272 271 258 259 257 255
225 218 140 196 218 213 220 178 204 217 157 202 202 153 220 256 240 231 180 153 216 232 226 243 245 250 257 258 257 258 257 261 263 267 271 274 274 274 270 269 268 263 259 257 256 257 263 264 264 265 260 257 260 253
214 184 162 182 213 208 240 150 170 190 199 232 113 207 245 231 220 54 216 216 246 245 243 245 252 254 252 265 273 268 261 262 265 266 268 267 267 267 265 262 258 259 261 255 253 257 261 259 262 264 262 258 245 241
157 195 192 216 195 207 142 188 169 177 208 172 177 228 257 222 110 91 237 246 248 253 250 247 247 264 271 254 250 256 262 260 259 259 258 261 262 261 260 261 257 253 252 263 261 256 259 256 248 251 251 249 225 231
219 196 208 208 170 157 179 183 186 193 226 202 184 262 259 55 146 225 232 250 252 256 259 264 261 240 242 260 268 265 265 254 254 257 256 253 262 269 268 265 266 262 259 259 253 253 248 255 258 246 234 233 234 230
210 205 210 180 166 171 175 177 203 207 153 191 228 228 84 124 167 239 229 251 261 258 258 254 256 263 258 243 252 260 260 259 254 256 261 255 258 266 273 276 279 275 237 234 252 255 257 258 256 239 230 236 237 232
199 203 205 200 139 122 115 25 100 170 192 204 221 158 163 218 228 244 252 250 229 239 239 246 247 248 253 261 263 262 263 256 246 262 281 281 274 272 272 270 272 276 280 266 250 243 249 260 253 229 225 228 220 213
193 168 165 177 165 136 160 166 184 209 225 200 103 185 195 206 228 233 221 246 226 246 248 255 250 249 255 260 269 280 278 275 277 275 278 274 268 263 262 263 267 273 272 269 262 245 239 245 247 233 216 215 215 200
171 175 115 154 119 193 208 192 212 219 195 161 186 231 235 233 255 265 273 275 265 191 255 270 272 266 263 258 254 253 257 264 272 280 283 289 300 283 253 265 273 272 274 275 274 245 225 229 220 213 214 206 200 180
177 155 122 151 176 216 224 186 229 226 203 203 225 302 283 271 264 270 273 277 273 272 282 295 303 296 287 288 289 288 282 268 272 276 287 295 299 304 296 290 285 280 280 281 280 265 238 231 231 220 197 167 155 148
130 105 94 164 217 233 224 270 324 308 284 243 217 226 263 280 285 271 275 312 344 325 325 312 310 305 301 300 303 305 301 286 302 318 302 294 291 291 290 287 284 283 283 282 276 257 230 196 164 161 161 162 165 154
142 172 158 201 258 269 31 157 244 225 261 225 264 245 279 283 284 298 347 351 24 1 330 327 312 306 298 286 279 265 272 284 288 285 286 283 283 282 283 282 284 292 298 297 291 241 158 144 145 150 151 147 143 144
56 55 57 43 345 302 282 142 330 303 292 261 258 238 225 220 260 299 109 54 49 316 299 298 294 293 291 287 274 278 287 277 281 293 295 293 296 313 318 298 310 314 319 340 13 87 105 113 112 117 123 128 129 128